Date String (YYYY-MM-DD hh:mm:ss) UTC,Instrument flags,absolute air pressure of the measurement (hPa),sample flow rate (lpm),inlet stack bypass flow (lpm),air temperature of the measurement (°C),ambient temperature measured by the external sensor (°C),aerosol sample conditioner tube jacket temperature (°C),OPC LED temperature (°C),internal box temperature (°C),relative humidity of the measurement (%),span deviation,mass concentration of particles derived from Lorenz-Mie calculation of OPC scattering (μg/m³),mass concentration of particles derived from Lorenz-Mie calculation of OPC scattering (μg/m³),mass concentration of particles derived from Lorenz-Mie calculation of OPC scattering (μg/m³)
DateTimeUTC,F1_M11,P_M11,Q1_M11,Q2_M11,T1_M11,T2_M11,T3_M11,T4_M11,T5_M11,U1_M11,ZSPAN_M11,X0_M11,X2_M11,X1_M11
2023-07-18 06:00:00,SystemResetWarning,0830.8,5.00,000.00,028.8,025.9,000.0,037.2,030.2,15.4,0000.0,0007.55,0003.82,0003.31
2023-07-18 06:01:00,SystemResetWarning,0830.8,4.99,000.00,028.8,026.3,000.0,037.2,030.3,15.6,0000.0,0007.55,0003.85,0003.32
2023-07-18 06:02:00,SystemResetWarning,0830.8,5.00,000.00,028.9,026.6,000.0,037.2,030.4,15.7,0000.0,0007.05,0003.84,0003.32
2023-07-18 06:03:00,SystemResetWarning,0830.8,5.00,000.00,028.9,027.0,000.0,037.3,030.5,15.6,0000.0,0007.29,0003.88,0003.33
2023-07-18 06:04:00,SystemResetWarning,0830.8,5.01,000.00,028.9,027.2,000.0,037.3,030.6,15.7,0000.0,0007.31,0003.89,0003.33
2023-07-18 06:05:00,SystemResetWarning,0830.7,5.00,000.00,029.0,027.5,000.0,037.3,030.6,15.9,0000.0,0007.08,0003.88,0003.34
2023-07-18 06:06:00,SystemResetWarning,0830.7,5.00,000.00,029.0,027.7,000.0,037.3,030.7,15.4,0000.0,0006.95,0003.87,0003.33
2023-07-18 06:07:00,SystemResetWarning,0830.7,4.99,000.00,029.0,027.8,000.0,037.4,030.7,15.5,0000.0,0007.08,0003.87,0003.33
2023-07-18 06:08:00,SystemResetWarning,0830.7,5.00,000.00,029.1,027.9,000.0,037.4,030.8,15.6,0000.0,0007.22,0003.86,0003.32
2023-07-18 06:09:00,SystemResetWarning,0830.7,4.99,000.00,029.1,026.7,000.0,037.3,030.7,15.6,0000.0,0007.08,0003.84,0003.32
2023-07-18 06:10:00,SystemResetWarning,0830.6,5.01,000.00,029.0,025.5,000.0,037.2,030.5,15.5,0000.0,0006.99,0003.80,0003.32
2023-07-18 06:11:00,SystemResetWarning,0830.6,5.01,000.00,029.0,025.6,000.0,037.2,030.3,15.3,0000.0,0006.95,0003.77,0003.32
2023-07-18 06:12:00,SystemResetWarning,0830.6,5.01,000.00,028.9,025.9,000.0,037.2,030.3,15.7,0000.0,0007.46,0003.77,0003.32
2023-07-18 06:13:00,SystemResetWarning,0830.6,4.99,000.00,028.9,026.3,000.0,037.3,030.4,15.5,0000.0,0009.08,0003.76,0003.33
2023-07-18 06:14:00,SystemResetWarning,0830.6,5.00,000.00,028.9,026.7,000.0,037.3,030.5,15.3,0000.0,0009.20,0003.79,0003.33
2023-07-18 06:15:00,SystemResetWarning,0830.6,5.00,000.00,028.9,027.0,000.0,037.3,030.5,15.4,0000.0,0009.17,0003.76,0003.32
2023-07-18 06:16:00,SystemResetWarning,0830.6,5.01,000.00,029.0,027.2,000.0,037.4,030.6,15.1,0000.0,0009.24,0003.77,0003.31
2023-07-18 06:17:00,SystemResetWarning,0830.6,5.00,000.00,029.0,027.5,000.0,037.4,030.7,15.3,0000.0,0009.25,0003.78,0003.31
2023-07-18 06:18:00,SystemResetWarning,0830.6,4.99,000.00,029.0,027.7,000.0,037.4,030.7,15.3,0000.0,0009.44,0003.77,0003.30
2023-07-18 06:19:00,SystemResetWarning,0830.6,5.00,000.00,029.1,027.9,000.0,037.4,030.8,15.2,0000.0,0009.37,0003.75,0003.30
2023-07-18 06:20:00,SystemResetWarning,0830.6,5.00,000.00,029.1,027.8,000.0,037.4,030.8,15.2,0000.0,0009.33,0003.75,0003.30
2023-07-18 06:21:00,SystemResetWarning,0830.5,5.00,000.00,029.1,026.1,000.0,037.3,030.6,15.4,0000.0,0009.58,0003.77,0003.30
2023-07-18 06:22:00,SystemResetWarning,0830.5,5.01,000.00,029.1,025.4,000.0,037.2,030.5,15.4,0000.0,0010.06,0003.78,0003.29
2023-07-18 06:23:00,SystemResetWarning,0830.5,5.01,000.00,029.0,025.6,000.0,037.2,030.3,15.4,0000.0,0009.98,0003.77,0003.30
2023-07-18 06:24:00,SystemResetWarning,0830.5,5.00,000.00,028.9,026.0,000.0,037.3,030.3,15.5,0000.0,0008.28,0003.79,0003.30
2023-07-18 06:25:00,SystemResetWarning,0830.4,4.99,000.00,028.9,026.4,000.0,037.3,030.4,15.4,0000.0,0007.97,0003.75,0003.29
2023-07-18 06:26:00,SystemResetWarning,0830.5,5.01,000.00,028.9,026.7,000.0,037.4,030.5,15.4,0000.0,0007.95,0003.75,0003.30
2023-07-18 06:27:00,SystemResetWarning,0830.5,5.01,000.00,029.0,027.0,000.0,037.4,030.6,15.5,0000.0,0007.85,0003.74,0003.30
2023-07-18 06:28:00,SystemResetWarning,0830.5,5.00,000.00,029.0,027.3,000.0,037.4,030.6,15.5,0000.0,0007.85,0003.74,0003.30
2023-07-18 06:29:00,SystemResetWarning,0830.5,5.00,000.00,029.0,027.5,000.0,037.4,030.7,15.4,0000.0,0007.64,0003.72,0003.29
2023-07-18 06:30:00,SystemResetWarning,0830.6,5.00,000.00,029.1,027.7,000.0,037.4,030.8,15.5,0000.0,0007.47,0003.73,0003.29
2023-07-18 06:31:00,SystemResetWarning,0830.4,5.00,000.00,029.1,027.9,000.0,037.5,030.8,15.5,0000.0,0007.71,0003.75,0003.29
2023-07-18 06:32:00,SystemResetWarning,0830.4,4.99,000.00,029.2,027.5,000.0,037.4,030.8,15.4,0000.0,0008.33,0003.73,0003.29
2023-07-18 06:33:00,SystemResetWarning,0830.5,4.99,000.00,029.1,025.8,000.0,037.3,030.6,15.7,0000.0,0007.76,0003.72,0003.29
2023-07-18 06:34:00,SystemResetWarning,0830.4,5.01,000.00,029.0,025.5,000.0,037.3,030.5,15.6,0000.0,0007.78,0003.71,0003.29
2023-07-18 06:35:00,SystemResetWarning,0830.4,5.01,000.00,029.0,025.7,000.0,037.3,030.3,15.5,0000.0,0007.83,0003.69,0003.27
2023-07-18 06:36:00,SystemResetWarning,0830.4,5.00,000.00,028.9,026.1,000.0,037.3,030.4,15.4,0000.0,0007.78,0003.70,0003.27
2023-07-18 06:37:00,SystemResetWarning,0830.4,5.00,000.00,028.9,026.5,000.0,037.4,030.4,15.3,0000.0,0007.72,0003.70,0003.26
2023-07-18 06:38:00,SystemResetWarning,0830.4,5.00,000.00,029.0,026.8,000.0,037.4,030.5,15.4,0000.0,0007.77,0003.71,0003.26
2023-07-18 06:39:00,SystemResetWarning,0830.4,5.00,000.00,029.0,027.1,000.0,037.4,030.6,15.4,0000.0,0007.73,0003.70,0003.26
2023-07-18 06:40:00,SystemResetWarning,0830.3,4.99,000.00,029.0,027.3,000.0,037.4,030.6,15.3,0000.0,0007.88,0003.68,0003.25
2023-07-18 06:41:00,SystemResetWarning,0830.3,5.00,000.00,029.1,027.6,000.0,037.4,030.7,15.2,0000.0,0008.07,0003.67,0003.25
2023-07-18 06:42:00,SystemResetWarning,0830.3,5.00,000.00,029.1,027.7,000.0,037.5,030.8,15.2,0000.0,0008.29,0003.65,0003.24
2023-07-18 06:43:00,SystemResetWarning,0830.3,5.01,000.00,029.1,027.9,000.0,037.5,030.8,15.2,0000.0,0007.65,0003.66,0003.24
2023-07-18 06:44:00,SystemResetWarning,0830.3,4.99,000.00,029.2,027.8,000.0,037.5,030.8,15.1,0000.0,0007.68,0003.69,0003.24
2023-07-18 06:45:00,SystemResetWarning,0830.3,4.99,000.00,029.2,026.2,000.0,037.4,030.7,15.2,0000.0,0007.70,0003.70,0003.23
2023-07-18 06:46:00,SystemResetWarning,0830.3,5.01,000.00,029.1,025.5,000.0,037.3,030.5,15.2,0000.0,0007.90,0003.73,0003.25
2023-07-18 06:47:00,SystemResetWarning,0830.3,5.01,000.00,029.0,025.6,000.0,037.3,030.4,15.4,0000.0,0008.41,0003.73,0003.26
2023-07-18 06:48:00,SystemResetWarning,0830.3,5.00,000.00,029.0,026.0,000.0,037.3,030.4,15.6,0000.0,0008.66,0003.73,0003.27
2023-07-18 06:49:00,SystemResetWarning,0830.3,5.00,000.00,029.0,026.3,000.0,037.4,030.4,15.6,0000.0,0008.73,0003.76,0003.29
2023-07-18 06:50:00,SystemResetWarning,0830.3,5.00,000.00,029.0,026.7,000.0,037.4,030.5,15.5,0000.0,0008.89,0003.77,0003.30
2023-07-18 06:51:00,SystemResetWarning,0830.3,5.00,000.00,029.0,027.0,000.0,037.4,030.6,15.5,0000.0,0009.22,0003.78,0003.31
2023-07-18 06:52:00,SystemResetWarning,0830.3,4.99,000.00,029.0,027.3,000.0,037.4,030.6,15.5,0000.0,0009.10,0003.80,0003.31
2023-07-18 06:53:00,SystemResetWarning,0830.4,4.99,000.00,029.1,027.5,000.0,037.5,030.7,15.5,0000.0,0009.72,0003.83,0003.33
2023-07-18 06:54:00,SystemResetWarning,0830.4,5.00,000.00,029.1,027.7,000.0,037.5,030.8,15.5,0000.0,0009.84,0003.84,0003.33
2023-07-18 06:55:00,SystemResetWarning,0830.4,5.00,000.00,029.1,027.9,000.0,037.5,030.8,15.6,0000.0,0010.17,0003.84,0003.35
2023-07-18 06:56:00,SystemResetWarning,0830.4,5.00,000.00,029.2,028.0,000.0,037.5,030.9,15.7,0000.0,0010.46,0003.82,0003.35
2023-07-18 06:57:00,SystemResetWarning,0830.4,4.98,000.00,029.2,026.7,000.0,037.4,030.8,15.8,0000.0,0010.56,0003.80,0003.35
2023-07-18 06:58:00,SystemResetWarning,0830.4,5.01,000.00,029.1,025.5,000.0,037.3,030.6,15.6,0000.0,0010.13,0003.78,0003.35
2023-07-18 06:59:00,SystemResetWarning,0830.3,5.01,000.00,029.1,025.5,000.0,037.3,030.4,15.5,0000.0,0009.76,0003.79,0003.35
